Location: Park Creek Village Mobile Home Park
(38.2885°N, 122.4714°W)
Time: 04:35:19
(UTC+00:00)

Cosmos 405 - Pass Details

Date: 14 December 2019
Orbit: 451 x 467 km, 81.3° (Epoch: 23 January)

Event Time Altitude Azimuth Distance (km) Brightness Sun altitude
Exits shadow 14:08:41 - 350° (N) 2,018 5.9 -13.4°
Reaches altitude 10° 14:09:38 10° 350° (N) 1,619 5.4 -13.2°
Maximum altitude 14:13:11 84° 264° (W) 469 2.9 -12.5°
Drops below altitude 10° 14:16:40 10° 174° (S) 1,596 6.0 -11.9°
Sets 14:18:43 0° 174° (S) 2,462 7.0 -11.5°
